Bingham Lake, MN

8:16 AM CST on January 18, 2017 (GMT -0600)
Windom Municipal

Weather History for KMWM - March, 2013

Change the Weather History Date:

Saturday, March 30, 2013

  Actual Average Record
Temperature  
Mean Temperature 44 °F -  
Max Temperature 53 °F 49 °F 84 °F (1968)
Min Temperature 35 °F 28 °F -8 °F (1969)
Degree Days  
Heating Degree Days 21    
Moisture  
Dew Point 40 °F    
Average Humidity 79    
Maximum Humidity 100    
Minimum Humidity 62    
Precipitation  
Precipitation 0.00 in - - ()
Sea Level Pressure  
Sea Level Pressure 29.92 in    
Wind  
Wind Speed 12 mph (West)    
Max Wind Speed 20 mph    
Max Gust Speed 24 mph    
Visibility 8 miles    
Events Fog , Thunderstorm    
Averages and records for this station are not official NWS values.
T = Trace of Precipitation, MM = Missing Value Source: NWS Daily Summary

Daily Weather History Graph

Daily Weather History Graph

Search for Another Location

Airport or City:

Trip Planner

Search our weather history database for the weather conditions in past years. The results will help you decide how hot, cold, wet, or windy it might be!

Date:

Astronomy

Mar. 30, 2013 Rise Set
Actual Time 7:04 AM CDT 7:45 PM CDT
Civil Twilight 6:35 AM CDT 8:14 PM CDT
Nautical Twilight 6:01 AM CDT 8:48 PM CDT
Astronomical Twilight 5:25 AM CDT 9:24 PM CDT
Moon No Moon Rise 8:53 AM CDT (3/30)
Length of Visible Light 13h 38m
Length of Day
12h 40m
Waning Gibbous, 86% of the Moon is Illuminated
Mar 30
Waning Gibbous
Apr 2
Last Quarter
Apr 10
New
Apr 18
First Quarter
Apr 25
Full

Hourly Weather History & Observations

Time (CDT) Temp. Windchill Dew Point Humidity Pressure Visibility Wind Dir Wind Speed Gust Speed Precip Events Conditions
12:12 AM 48.2 °F - 35.6 °F 62% 29.99 in 10.0 mi SSE 10.4 mph - N/A   Mostly Cloudy
12:32 AM 46.4 °F 40.4 °F 35.6 °F 66% 29.98 in 10.0 mi South 13.8 mph 19.6 mph N/A   Mostly Cloudy
12:53 AM 46.4 °F 40.1 °F 35.6 °F 66% 29.98 in 10.0 mi South 15.0 mph - N/A Thunderstorm Clear
1:32 AM 46.4 °F 41.1 °F 35.6 °F 66% 29.96 in 10.0 mi South 11.5 mph - N/A   Clear
1:53 AM 44.6 °F 38.1 °F 35.6 °F 71% 29.95 in 10.0 mi South 13.8 mph 18.4 mph N/A   Clear
2:12 AM 44.6 °F 38.4 °F 35.6 °F 71% 29.95 in 10.0 mi South 12.7 mph - N/A   Clear
2:32 AM 44.6 °F 38.4 °F 35.6 °F 71% 29.94 in 10.0 mi South 12.7 mph - N/A   Clear
2:53 AM 44.6 °F 38.4 °F 35.6 °F 71% 29.95 in 10.0 mi South 12.7 mph - N/A   Clear
3:12 AM 44.6 °F 38.8 °F 35.6 °F 71% 29.93 in 10.0 mi South 11.5 mph - N/A   Clear
3:33 AM 44.6 °F 38.4 °F 35.6 °F 71% 29.93 in 10.0 mi South 12.7 mph - N/A   Clear
3:53 AM 42.8 °F 38.0 °F 35.6 °F 76% 29.93 in 10.0 mi SSW 8.1 mph - N/A   Clear
4:12 AM 42.8 °F 37.0 °F 35.6 °F 76% 29.92 in 10.0 mi SSW 10.4 mph - N/A   Clear
4:33 AM 42.8 °F 36.6 °F 35.6 °F 76% 29.92 in 10.0 mi SSW 11.5 mph - N/A   Clear
4:53 AM 42.8 °F 36.6 °F 37.4 °F 81% 29.91 in 10.0 mi SSW 11.5 mph - N/A   Clear
5:12 AM 42.8 °F 37.5 °F 37.4 °F 81% 29.91 in 10.0 mi SSW 9.2 mph - N/A   Clear
5:33 AM 42.8 °F 36.2 °F 37.4 °F 81% 29.90 in 10.0 mi SSW 12.7 mph 17.3 mph N/A   Clear
5:52 AM 42.8 °F 37.0 °F 39.2 °F 87% 29.90 in 10.0 mi SW 10.4 mph - N/A   Mostly Cloudy
6:12 AM 42.8 °F 37.0 °F 39.2 °F 87% 29.89 in 10.0 mi South 10.4 mph - N/A   Scattered Clouds
6:33 AM 44.6 °F 38.8 °F 41.0 °F 87% 29.89 in 10.0 mi SSW 11.5 mph - N/A   Mostly Cloudy
6:52 AM 44.6 °F 38.1 °F 41.0 °F 87% 29.89 in 10.0 mi SSW 13.8 mph - N/A   Scattered Clouds
7:12 AM 46.4 °F 39.5 °F 42.8 °F 87% 29.89 in 10.0 mi SSW 17.3 mph - N/A   Scattered Clouds
7:33 AM 48.2 °F - 42.8 °F 82% 29.90 in 10.0 mi SSW 16.1 mph 24.2 mph N/A   Overcast
7:52 AM 48.2 °F - 42.8 °F 82% 29.91 in 10.0 mi SW 17.3 mph 20.7 mph N/A   Overcast
8:12 AM 48.2 °F - 42.8 °F 82% 29.91 in 10.0 mi WSW 12.7 mph 16.1 mph N/A   Overcast
8:33 AM 48.2 °F - 42.8 °F 82% 29.91 in 10.0 mi SW 13.8 mph 18.4 mph N/A   Overcast
8:52 AM 48.2 °F - 44.6 °F 87% 29.91 in 10.0 mi SW 12.7 mph 18.4 mph N/A   Overcast
9:12 AM 48.2 °F - 44.6 °F 87% 29.91 in 10.0 mi WSW 9.2 mph - N/A   Overcast
9:33 AM 48.2 °F - 44.6 °F 87% 29.91 in 10.0 mi WSW 10.4 mph - N/A   Overcast
9:52 AM 50.0 °F - 44.6 °F 82% 29.91 in 10.0 mi West 11.5 mph - N/A   Overcast
10:12 AM 51.8 °F - 44.6 °F 76% 29.91 in 10.0 mi West 18.4 mph - N/A   Mostly Cloudy
10:32 AM 51.8 °F - 44.6 °F 76% 29.91 in 10.0 mi WNW 19.6 mph - N/A   Mostly Cloudy
10:52 AM 51.8 °F - 44.6 °F 76% 29.91 in 10.0 mi NW 15.0 mph 20.7 mph N/A   Scattered Clouds
11:13 AM 50.0 °F - 42.8 °F 76% 29.92 in 7.0 mi WNW 15.0 mph 20.7 mph N/A   Clear
11:33 AM 51.8 °F - 42.8 °F 71% 29.92 in 7.0 mi NW 16.1 mph - N/A   Clear
11:52 AM 48.2 °F - 42.8 °F 82% 29.92 in 5.0 mi NW 17.3 mph - N/A   Haze
12:13 PM 46.4 °F 39.8 °F 41.0 °F 81% 29.93 in 4.0 mi NW 16.1 mph - N/A   Haze
12:33 PM 46.4 °F 40.1 °F 41.0 °F 81% 29.93 in 3.0 mi NNW 15.0 mph 18.4 mph N/A   Haze
12:52 PM 46.4 °F 40.7 °F 42.8 °F 87% 29.93 in 3.0 mi NW 12.7 mph - N/A   Haze
1:13 PM 48.2 °F - 42.8 °F 82% 29.93 in 4.0 mi NW 12.7 mph - N/A   Haze
1:33 PM 50.0 °F - 42.8 °F 76% 29.92 in 5.0 mi NW 12.7 mph - N/A   Haze
1:52 PM 51.8 °F - 42.8 °F 71% 29.92 in 5.0 mi NW 11.5 mph - N/A   Haze
2:13 PM 51.8 °F - 42.8 °F 71% 29.92 in 5.0 mi NW 10.4 mph 16.1 mph N/A   Haze
2:33 PM 53.6 °F - 44.6 °F 72% 29.91 in 7.0 mi NW 12.7 mph 18.4 mph N/A   Clear
2:52 PM 53.6 °F - 44.6 °F 72% 29.91 in 7.0 mi NW 10.4 mph 16.1 mph N/A   Scattered Clouds
3:13 PM 53.6 °F - 42.8 °F 67% 29.91 in 7.0 mi NW 10.4 mph 16.1 mph N/A   Scattered Clouds
3:32 PM 53.6 °F - 42.8 °F 67% 29.91 in 7.0 mi NW 5.8 mph 9.2 mph N/A   Mostly Cloudy
3:52 PM 53.6 °F - 42.8 °F 67% 29.90 in 7.0 mi NW 10.4 mph 16.1 mph N/A   Mostly Cloudy
4:12 PM 53.6 °F - 42.8 °F 67% 29.90 in 10.0 mi NW 13.8 mph 18.4 mph N/A   Scattered Clouds
4:32 PM 53.6 °F - 42.8 °F 67% 29.90 in 10.0 mi NW 13.8 mph 19.6 mph N/A   Scattered Clouds
4:53 PM 53.6 °F - 42.8 °F 67% 29.90 in 10.0 mi NW 12.7 mph 18.4 mph N/A   Scattered Clouds
5:12 PM 53.6 °F - 42.8 °F 67% 29.90 in 10.0 mi NNW 17.3 mph 20.7 mph N/A   Scattered Clouds
5:32 PM 53.6 °F - 42.8 °F 67% 29.90 in 10.0 mi NW 16.1 mph - N/A   Scattered Clouds
5:53 PM 51.8 °F - 42.8 °F 71% 29.90 in 10.0 mi NW 19.6 mph 23.0 mph N/A   Scattered Clouds
6:12 PM 51.8 °F - 41.0 °F 67% 29.90 in 10.0 mi NW 16.1 mph - N/A   Clear
6:32 PM 50.0 °F - 42.8 °F 76% 29.90 in 10.0 mi NNW 16.1 mph - N/A   Clear
6:53 PM 48.2 °F - 42.8 °F 82% 29.91 in 7.0 mi NW 15.0 mph - N/A   Clear
7:12 PM 46.4 °F 40.1 °F 41.0 °F 81% 29.91 in 7.0 mi NNW 15.0 mph - N/A   Clear
7:32 PM 44.6 °F 38.8 °F 39.2 °F 81% 29.91 in 5.0 mi NW 11.5 mph - N/A   Clear
7:53 PM 42.8 °F 38.0 °F 39.2 °F 87% 29.91 in 7.0 mi NNW 8.1 mph - N/A   Clear
8:12 PM 41.0 °F 37.1 °F 37.4 °F 87% 29.92 in 4.0 mi NW 5.8 mph - N/A   Clear
8:32 PM 39.2 °F 34.2 °F 37.4 °F 93% 29.92 in 5.0 mi WNW 6.9 mph - N/A   Clear
8:53 PM 39.2 °F 34.2 °F 37.4 °F 93% 29.92 in 5.0 mi NW 6.9 mph - N/A   Clear
9:12 PM 37.4 °F 32.1 °F 35.6 °F 93% 29.92 in 4.0 mi NW 6.9 mph - N/A   Clear
9:32 PM 37.4 °F 31.4 °F 35.6 °F 93% 29.92 in 3.0 mi NW 8.1 mph - N/A   Clear
9:53 PM 35.6 °F 28.6 °F 33.8 °F 93% 29.92 in 3.0 mi NW 9.2 mph - N/A   Clear
10:33 PM 35.6 °F 30.7 °F 33.8 °F 93% 29.92 in 2.0 mi NW 5.8 mph - N/A   Clear
10:53 PM 35.6 °F 29.2 °F 35.6 °F 100% 29.92 in 2.0 mi WNW 8.1 mph - N/A   Mostly Cloudy
11:12 PM 35.6 °F 28.0 °F 35.6 °F 100% 29.92 in 1.0 mi NW 10.4 mph - N/A   Overcast
11:33 PM 35.6 °F 28.6 °F 35.6 °F 100% 29.91 in 0.8 mi WNW 9.2 mph - N/A   Overcast
11:53 PM 35.6 °F 28.6 °F 33.8 °F 93% 29.91 in 0.2 mi WNW 9.2 mph - N/A Fog Fog